[[{"header":{"parameterUnit":"m.s-1","parameterCategory":1,"la1":30.2991,"la2":30.254,"lo1":-89.0895,"lo2":-89.0444,"dy":0.0017,"dx":0.0017,"nx":28,"ny":28,"refTime":"2025-11-26T09:00:00:Z","depth":0,"parameterNumber":2,"parameterNumberName":"U-component_of_WINDS"},"data":[0,0,0,0,0,0,0,0,0,0,0,0,0,0,0,0,0,0,0,0,0,0,0,0,0,0,0,0,0,0,0,0,0,0,0,0,0,0,0,0,0,0,0,0,0,0,0,0,0,0,0,0,0,0,0,0,0,0,0.8499,0.8499,0,0.8492,0.8492,0.8492,0.8488,0.8488,0.8488,0.8487,0.8479,0.8479,0.8479,0,0,0,0,0,0,0,0,0,0,0,0,0,0.8508,0.8508,0.8499,0.8499,0.8499,0.8492,0.8492,0.8492,0.8488,0.8488,0.8488,0.8487,0.8479,0.8479,0.8479,0,0,0,0,0,0,0,0,0,0,0,0,0,0.8503,0.8508,0.8499,0.8496,0.8496,0.8492,0.8492,0.8492,0.8488,0.8488,0.8487,0.8487,0.8479,0.8479,0.8479,0.8478,0,0,0.8478,0.8478,0,0,0,0,0,0,0,0,0.8503,0.8503,0.8497,0.8496,0.8496,0.8491,0.8492,0.8487,0.8488,0.8491,0.8487,0.8487,0.8483,0.8482,0.8481,0.8477,0.8477,0.8478,0.8478,0.8477,0.8477,0,0,0,0,0,0,0,0.8503,0.8503,0.8497,0.8497,0.8496,0.8495,0.8494,0.8491,0.8487,0.849,0.849,0.8489,0.8483,0.8481,0.8481,0.8477,0.8478,0.8478,0.8477,0.8477,0.8473,0.8473,0,0,0,0,0,0,0.8504,0.8503,0.8497,0.8496,0.85,0.8495,0.8494,0.8492,0.8487,0.8486,0.8489,0.8489,0.8482,0.8481,0.8481,0.8479,0.8477,0.8477,0.8477,0.8473,0.8473,0.8473,0,0,0,0,0,0,0.8505,0.8504,0.8497,0.85,0.8499,0.8495,0.8493,0.8492,0.8491,0.8486,0.8486,0.8489,0.8482,0.8481,0.8479,0.8479,0.8477,0.8477,0.8473,0.8473,0.8473,0.8477,0,0,0,0,0,0,0.8505,0.8504,0.8504,0.85,0.8499,0.8495,0.8493,0.8492,0.8491,0.849,0.8486,0.8485,0.8482,0.8479,0.8478,0.8479,0.8477,0.8473,0.8473,0.8473,0.8477,0.8477,0.8478,0,0,0,0,0,0.8505,0.8505,0.8504,0.8503,0.8498,0.8496,0.8495,0.8492,0.8491,0.849,0.8488,0.8485,0.8479,0.8479,0.8478,0.8478,0.8472,0.8473,0.8473,0.8477,0.8477,0.8478,0,0,0,0,0,0,0.8508,0.8504,0.8503,0.8501,0.8499,0.8495,0.8494,0.8492,0.849,0.8489,0.8485,0.8484,0.8483,0.848,0.848,0.8477,0.8476,0.8476,0.8479,0.8479,0.848,0.848,0.8476,0,0,0,0,0,0.8509,0.8507,0.8504,0.8503,0.8502,0.8498,0.8497,0.8495,0.8492,0.8491,0.8488,0.8485,0.8482,0.8481,0.8478,0.8477,0.8476,0.8476,0.8477,0.8477,0.8477,0.8476,0.8477,0.8473,0.8473,0.8473,0,0,0.851,0.8507,0.8506,0.8503,0.8501,0.8499,0.8497,0.8495,0.8494,0.849,0.8488,0.8486,0.8482,0.8481,0.848,0.8479,0.8478,0.8477,0.8478,0.8477,0.8477,0.8477,0.8477,0.8473,0.8473,0.8473,0,0,0.8511,0.8509,0.8508,0.8506,0.8503,0.8501,0.8501,0.8497,0.8496,0.8494,0.8491,0.8489,0.8485,0.8483,0.8481,0.8483,0.848,0.8482,0.8484,0.8483,0.8483,0.8484,0.8484,0.8484,0.8482,0.8482,0.8482,0,0.8512,0.851,0.8507,0.8506,0.8505,0.8502,0.8501,0.8499,0.8495,0.8495,0.8494,0.8489,0.8486,0.8484,0.8485,0.8483,0.8483,0.8482,0.8484,0.8484,0.8484,0.8484,0.8485,0.8482,0.8482,0.8482,0.8482,0,0.8511,0.851,0.851,0.8507,0.8505,0.8504,0.8502,0.8501,0.8499,0.8497,0.8495,0.8492,0.8489,0.8489,0.8487,0.8487,0.8486,0.8485,0.8483,0.8485,0.8485,0.8485,0.8483,0.8482,0.8482,0.8482,0,0,0.8513,0.851,0.851,0.8509,0.8506,0.8505,0.8503,0.8501,0.85,0.8498,0.8497,0.8494,0.8493,0.8491,0.8489,0.8489,0.849,0.8487,0.8487,0.8488,0.849,0.8491,0.8491,0.8489,0.8489,0.8489,0.849,0,0.8513,0.8511,0.851,0.8508,0.8507,0.8505,0.8504,0.8502,0.8501,0.8499,0.8497,0.8496,0.8494,0.8493,0.8493,0.849,0.8491,0.849,0.8488,0.8488,0.8488,0.8491,0.8492,0.8493,0.849,0.8491,0.8491,0,0.8513,0.8512,0.8511,0.8509,0.8508,0.8507,0.8505,0.8504,0.8502,0.8501,0.85,0.8498,0.8496,0.8495,0.8494,0.8493,0.8492,0.8491,0.8491,0.849,0.8489,0.8491,0.8494,0.8494,0.8491,0.8491,0.8491,0,0.8514,0.8512,0.8511,0.8511,0.8508,0.8508,0.8507,0.8505,0.8504,0.8502,0.8502,0.85,0.8499,0.8497,0.8495,0.8494,0.8494,0.8492,0.8492,0.8492,0.8492,0.8492,0.8495,0.8492,0.8492,0.8492,0.8492,0,0.8515,0.8514,0.8512,0.8511,0.8511,0.8509,0.8508,0.8507,0.8505,0.8504,0.8503,0.8502,0.8499,0.8498,0.8496,0.8495,0.8495,0.8493,0.8493,0.8493,0.8494,0.8492,0.8492,0.8492,0.8492,0.8492,0.8492,0,0.8516,0.8514,0.8513,0.8511,0.8511,0.8511,0.8509,0.8508,0.8507,0.8506,0.8506,0.8503,0.8502,0.85,0.8498,0.8497,0.8496,0.8495,0.8497,0.8496,0.8497,0.8497,0.8499,0.8499,0.8496,0.8496,0.8496,0,0.8516,0.8515,0.8514,0.8513,0.8512,0.8512,0.8511,0.8509,0.8509,0.8507,0.8506,0.8505,0.8504,0.8502,0.85,0.8498,0.8497,0.8498,0.8497,0.8498,0.8497,0.8497,0.8497,0.8498,0.8498,0.8498,0.8498,0,0.8516,0.8516,0.8515,0.8514,0.8513,0.8512,0.8511,0.8511,0.8509,0.8509,0.8508,0.8507,0.8505,0.8504,0.8502,0.8501,0.8499,0.8499,0.8499,0.8499,0.85,0.85,0.8497,0.8499,0.8499,0.8499,0.8499,0.8499,0.8516,0.8516,0.8515,0.8514,0.8514,0.8513,0.8513,0.8512,0.8511,0.851,0.8509,0.8508,0.8506,0.8504,0.8503,0.8502,0.8502,0.8502,0.8502,0.8502,0.8502,0.8501,0.8502,0.8502,0.8502,0.8502,0.8502,0,0.8516,0.8516,0.8515,0.8515,0.8514,0.8514,0.8513,0.8512,0.8512,0.8511,0.851,0.8509,0.8508,0.8506,0.8505,0.8505,0.8504,0.8505,0.8504,0.8504,0.8502,0.8503,0.8505,0.8505,0.8505,0.8505,0.8505,0.8505,0.8516,0.8516,0.8516,0.8515,0.8514,0.8514,0.8513,0.8513,0.8512,0.8511,0.8511,0.851,0.8509,0.8508,0.8507,0.8507,0.8506,0.8507,0.8506,0.8504,0.8504,0.8504,0.8504,0.8507,0.8507,0.8508,0.8508,0.8508]},{"header":{"parameterUnit":"m.s-1","parameterCategory":1,"la1":30.2991,"la2":30.254,"lo1":-89.0895,"lo2":-89.0444,"dy":0.0017,"dx":0.0017,"nx":28,"ny":28,"refTime":"2025-11-26T09:00:00:Z","depth":0,"parameterNumber":3,"parameterNumberName":"V-component_of_WINDS"},"data":[0,0,0,0,0,0,0,0,0,0,0,0,0,0,0,0,0,0,0,0,0,0,0,0,0,0,0,0,0,0,0,0,0,0,0,0,0,0,0,0,0,0,0,0,0,0,0,0,0,0,0,0,0,0,0,0,0,0,-4.6518,-4.652,0,-4.6674,-4.6676,-4.6678,-4.665,-4.6648,-4.6645,-4.6642,-4.68,-4.6806,-4.6813,0,0,0,0,0,0,0,0,0,0,0,0,0,-4.6196,-4.6202,-4.6518,-4.652,-4.6522,-4.6674,-4.6676,-4.6678,-4.6651,-4.6648,-4.6644,-4.6641,-4.6798,-4.6805,-4.6814,0,0,0,0,0,0,0,0,0,0,0,0,0,-4.6342,-4.6204,-4.6518,-4.6527,-4.6529,-4.6673,-4.6676,-4.6679,-4.6652,-4.6647,-4.6643,-4.664,-4.6795,-4.6805,-4.6815,-4.6959,0,0,-4.6846,-4.685,0,0,0,0,0,0,0,0,-4.6334,-4.6354,-4.6524,-4.6526,-4.6529,-4.6639,-4.662,-4.6772,-4.6653,-4.6605,-4.6642,-4.6638,-4.6749,-4.6763,-4.6801,-4.6966,-4.6973,-4.6846,-4.6853,-4.6857,-4.686,0,0,0,0,0,0,0,-4.6324,-4.6347,-4.658,-4.6526,-4.653,-4.6523,-4.6539,-4.6649,-4.6698,-4.6609,-4.6607,-4.6626,-4.675,-4.6791,-4.6805,-4.6975,-4.6846,-4.6855,-4.6861,-4.6865,-4.7269,-4.7274,0,0,0,0,0,0,-4.6311,-4.6339,-4.6575,-4.6584,-4.642,-4.6532,-4.655,-4.6608,-4.6697,-4.6707,-4.663,-4.6624,-4.6776,-4.6793,-4.681,-4.6987,-4.6857,-4.6866,-4.6872,-4.7265,-4.727,-4.7275,0,0,0,0,0,0,-4.6304,-4.6333,-4.6568,-4.6461,-4.6491,-4.6542,-4.6607,-4.6613,-4.6654,-4.6713,-4.6721,-4.6663,-4.6774,-4.6796,-4.6923,-4.6992,-4.6871,-4.688,-4.7259,-4.7266,-4.7273,-4.734,0,0,0,0,0,0,-4.6295,-4.633,-4.6386,-4.6463,-4.6497,-4.6679,-4.6611,-4.6619,-4.6672,-4.6667,-4.6746,-4.6755,-4.6772,-4.6908,-4.6933,-4.7003,-4.6888,-4.7253,-4.7262,-4.727,-4.7332,-4.7348,-4.7362,0,0,0,0,0,-4.6284,-4.6397,-4.6389,-4.6417,-4.6567,-4.6683,-4.6702,-4.672,-4.6677,-4.6734,-4.6772,-4.6753,-4.698,-4.6921,-4.6949,-4.7023,-4.7249,-4.726,-4.727,-4.7325,-4.7345,-4.7362,0,0,0,0,0,0,-4.6325,-4.6407,-4.6399,-4.6541,-4.6605,-4.6678,-4.675,-4.6741,-4.6818,-4.681,-4.6828,-4.6846,-4.6976,-4.7012,-4.6945,-4.7169,-4.7108,-4.7125,-4.7141,-4.716,-4.7175,-4.7164,-4.6896,0,0,0,0,0,-4.6351,-4.6439,-4.6506,-4.6624,-4.6658,-4.6698,-4.6749,-4.6758,-4.6825,-4.6852,-4.6899,-4.6965,-4.7051,-4.7107,-4.719,-4.7337,-4.7354,-4.7402,-4.7417,-4.7429,-4.7444,-4.7526,-4.7549,-4.731,-4.731,-4.7309,0,0,-4.6405,-4.6461,-4.6515,-4.6634,-4.6685,-4.6776,-4.6721,-4.6819,-4.6887,-4.6866,-4.699,-4.7027,-4.7102,-4.724,-4.7303,-4.7274,-4.7514,-4.7443,-4.7452,-4.746,-4.7539,-4.7562,-4.7582,-4.7317,-4.7316,-4.7314,0,0,-4.655,-4.6601,-4.6706,-4.6759,-4.6838,-4.6865,-4.689,-4.6965,-4.699,-4.7114,-4.7102,-4.7182,-4.733,-4.7384,-4.7431,-4.7599,-4.7585,-4.7625,-4.7706,-4.7786,-4.7805,-4.7822,-4.7883,-4.7905,-4.7639,-4.7639,-4.764,0,-4.6607,-4.6744,-4.6761,-4.6862,-4.6915,-4.6903,-4.701,-4.706,-4.7161,-4.7199,-4.7165,-4.7352,-4.7401,-4.7553,-4.7594,-4.7632,-4.7662,-4.7617,-4.7801,-4.7818,-4.7834,-4.7893,-4.7916,-4.7644,-4.7643,-4.7643,-4.7643,0,-4.6811,-4.6906,-4.6982,-4.7082,-4.7144,-4.7247,-4.728,-4.7341,-4.7344,-4.7374,-4.7502,-4.7561,-4.7656,-4.7692,-4.7696,-4.7846,-4.7826,-4.7796,-4.7736,-4.7861,-4.7917,-4.7939,-4.765,-4.7649,-4.7647,-4.7646,0,0,-4.6986,-4.7096,-4.7124,-4.717,-4.7257,-4.733,-4.7433,-4.7528,-4.758,-4.765,-4.7738,-4.7865,-4.7839,-4.7892,-4.7902,-4.7972,-4.8104,-4.7934,-4.7936,-4.7965,-4.8275,-4.8297,-4.8323,-4.8095,-4.8099,-4.8103,-4.8269,0,-4.7141,-4.7324,-4.7343,-4.7507,-4.7596,-4.7586,-4.7676,-4.7739,-4.777,-4.785,-4.7884,-4.7975,-4.7933,-4.7965,-4.8034,-4.8073,-4.8166,-4.8061,-4.8177,-4.8181,-4.816,-4.8352,-4.8376,-4.853,-4.8291,-4.8294,-4.8297,0,-4.7345,-4.7424,-4.7597,-4.7673,-4.7711,-4.7792,-4.7881,-4.7957,-4.8029,-4.8047,-4.8108,-4.8109,-4.8216,-4.8151,-4.8299,-4.8227,-4.8275,-4.8302,-4.8308,-4.8321,-4.8247,-4.8371,-4.8579,-4.8603,-4.8331,-4.8329,-4.8326,0,-4.7458,-4.7606,-4.773,-4.7769,-4.7861,-4.7918,-4.7959,-4.8027,-4.8083,-4.8161,-4.8198,-4.8286,-4.8335,-4.8404,-4.8429,-4.8379,-4.8577,-4.8513,-4.8595,-4.8595,-4.8638,-4.8635,-4.8859,-4.8667,-4.8667,-4.8666,-4.8666,0,-4.7629,-4.7735,-4.7782,-4.7858,-4.7977,-4.7999,-4.8117,-4.8154,-4.8215,-4.8299,-4.8295,-4.8373,-4.8401,-4.8484,-4.8504,-4.8625,-4.8646,-4.8664,-4.8668,-4.8666,-4.8664,-4.8698,-4.8689,-4.8672,-4.8671,-4.867,-4.8669,0,-4.7775,-4.781,-4.7944,-4.8021,-4.8043,-4.8128,-4.8194,-4.8267,-4.8298,-4.8404,-4.843,-4.8478,-4.8576,-4.8608,-4.8725,-4.8739,-4.888,-4.8874,-4.8857,-4.8858,-4.8939,-4.8931,-4.9194,-4.923,-4.9013,-4.9015,-4.9016,0,-4.7882,-4.7965,-4.8051,-4.8108,-4.8151,-4.8241,-4.8299,-4.8324,-4.8385,-4.8474,-4.8537,-4.8634,-4.8714,-4.887,-4.8916,-4.9006,-4.9003,-4.9089,-4.9017,-4.9012,-4.9007,-4.9003,-4.9012,-4.9103,-4.9105,-4.9107,-4.9108,0,-4.807,-4.8084,-4.8169,-4.826,-4.833,-4.8403,-4.8473,-4.8519,-4.8554,-4.8622,-4.8723,-4.8785,-4.8906,-4.9003,-4.9096,-4.9138,-4.913,-4.9131,-4.9155,-4.9154,-4.9141,-4.9151,-4.8895,-4.9125,-4.9123,-4.9122,-4.9121,-4.912,-4.8202,-4.8275,-4.8349,-4.8443,-4.8499,-4.8565,-4.8639,-4.868,-4.8765,-4.8867,-4.8876,-4.8985,-4.9056,-4.918,-4.9227,-4.9313,-4.9288,-4.9323,-4.9332,-4.934,-4.9348,-4.9126,-4.9329,-4.9329,-4.9328,-4.9328,-4.9328,0,-4.8391,-4.8438,-4.8525,-4.8625,-4.87,-4.8686,-4.8764,-4.8827,-4.8924,-4.8992,-4.907,-4.9187,-4.9282,-4.9336,-4.943,-4.9489,-4.9488,-4.9513,-4.951,-4.952,-4.9363,-4.9334,-4.9513,-4.9513,-4.9513,-4.9513,-4.9513,-4.9512,-4.8498,-4.8623,-4.8646,-4.8799,-4.8845,-4.8953,-4.8999,-4.906,-4.9115,-4.9246,-4.9325,-4.936,-4.9422,-4.9522,-4.9609,-4.9622,-4.9658,-4.9686,-4.9697,-4.955,-4.9531,-4.9513,-4.9485,-4.9693,-4.9693,-4.9847,-4.9849,-4.985]}]]